TIANMU-1 04

Last updated on Sun Oct 06 2024 00:02:18 GMT+0000 (Coordinated Universal Time)

1 55974U 23039B 24279.54001529 .00028787 00000+0 11156-2 0 9994 2 55974 97.4730 69.2497 0006346 143.6895 216.4775 15.26089018 85650
UTC large
Height (km)
Speed (km/s)
/
Latitude / Longitude
Inclination (degrees)
Orbital Period (minutes)
Azimuth
Elevation
Range (km)
Doppler Factor

Next 0 passes for location: London (51.5072 / 0.1276)

Sorry there are no passes over London.